Elkins, WV

5:42 AM EDT on July 22, 2017 (GMT -0400)
Elkins-Randolph County

Weather History for KEKN - October, 2014

Change the Weather History Date:

Thursday, October 30, 2014

  Actual Average Record
Temperature  
Mean Temperature 39 °F 47 °F  
Max Temperature 46 °F 60 °F 78 °F (1971)
Min Temperature 32 °F 34 °F 15 °F (1969)
Degree Days  
Heating Degree Days 26 18  
Month to date heating degree days 362 412  
Since 1 July heating degree days 509 572  
Cooling Degree Days 0 0  
Month to date cooling degree days 2 0  
Year to date cooling degree days 505 471  
Moisture  
Dew Point 35 °F    
Average Humidity 79    
Maximum Humidity 96    
Minimum Humidity 62    
Precipitation  
Precipitation 0.00 in 0.10 in 1.38 in (1962)
Month to date precipitation 6.36 2.75  
Year to date precipitation 35.82 39.19  
Snow  
Snow 0.00 in - - ()
Month to date snowfall 0.0  
Since 1 September snowfall 0.0  
Snow Depth 0.00 in    
Sea Level Pressure  
Sea Level Pressure 30.11 in    
Wind  
Wind Speed 3 mph (WNW)    
Max Wind Speed 9 mph    
Max Gust Speed 13 mph    
Visibility 10 miles    
Events      
T = Trace of Precipitation, MM = Missing Value Source: NWS Daily Summary

Daily Weather History Graph

Daily Weather History Graph

Search for Another Location

Airport or City:

Trip Planner

Search our weather history database for the weather conditions in past years. The results will help you decide how hot, cold, wet, or windy it might be!

Date:

Astronomy

Oct. 30, 2014 Rise Set
Actual Time 7:44 AM EDT 6:21 PM EDT
Civil Twilight 7:16 AM EDT 6:48 PM EDT
Nautical Twilight 6:45 AM EDT 7:20 PM EDT
Astronomical Twilight 6:14 AM EDT 7:51 PM EDT
Moon 1:46 PM EDT (10/30) No Moon Set
Length of Visible Light 11h 31m
Length of Day
10h 36m
Waxing Crescent, 45% of the Moon is Illuminated
Oct 30
Waxing Crescent
Oct 30
First Quarter
Nov 6
Full
Nov 14
Last Quarter
Nov 22
New

Hourly Weather History & Observations

Time (EDT) Temp. Windchill Dew Point Humidity Pressure Visibility Wind Dir Wind Speed Gust Speed Precip Events Conditions
12:51 AM 45.0 °F 40.1 °F 37.0 °F 74% 30.09 in 10.0 mi WNW 9.2 mph - N/A   Scattered Clouds
1:51 AM 44.1 °F 39.5 °F 37.0 °F 76% 30.09 in 10.0 mi NW 8.1 mph - N/A   Overcast
2:51 AM 43.0 °F 41.3 °F 36.0 °F 76% 30.08 in 10.0 mi West 3.5 mph - N/A   Overcast
3:51 AM 41.0 °F - 37.9 °F 89% 30.08 in 10.0 mi Calm Calm - N/A   Overcast
4:51 AM 42.1 °F 39.2 °F 36.0 °F 79% 30.09 in 10.0 mi WNW 4.6 mph - N/A   Overcast
5:51 AM 42.1 °F 38.4 °F 36.0 °F 79% 30.10 in 10.0 mi WNW 5.8 mph - N/A   Overcast
6:51 AM 41.0 °F 37.1 °F 35.1 °F 79% 30.11 in 10.0 mi NW 5.8 mph - N/A   Overcast
7:16 AM 41.0 °F 36.4 °F 35.1 °F 79% 30.08 in 10.0 mi NW 6.9 mph - N/A   Overcast
7:27 AM 41.0 °F 35.2 °F 35.1 °F 79% 30.09 in 10.0 mi NW 9.2 mph - N/A   Overcast
7:39 AM 41.0 °F 37.1 °F 36.0 °F 82% 30.09 in 10.0 mi NW 5.8 mph - N/A   Overcast
7:51 AM 41.0 °F 37.1 °F 36.0 °F 82% 30.12 in 10.0 mi NW 5.8 mph - N/A   Overcast
8:29 AM 41.0 °F - 36.0 °F 82% 30.10 in 10.0 mi Calm Calm - N/A   Overcast
8:51 AM 41.0 °F 38.0 °F 36.0 °F 82% 30.14 in 10.0 mi West 4.6 mph - N/A   Overcast
9:51 AM 42.1 °F 38.4 °F 36.0 °F 79% 30.14 in 10.0 mi WNW 5.8 mph - N/A   Overcast
10:51 AM 43.0 °F 40.3 °F 36.0 °F 76% 30.15 in 10.0 mi NW 4.6 mph - N/A   Overcast
11:51 AM 43.0 °F - 35.1 °F 74% 30.15 in 10.0 mi Calm Calm - N/A   Overcast
12:51 PM 44.1 °F - 34.0 °F 68% 30.14 in 10.0 mi Calm Calm - N/A   Overcast
1:51 PM 45.0 °F - 34.0 °F 65% 30.12 in 10.0 mi Calm Calm - N/A   Overcast
2:51 PM 45.0 °F 43.5 °F 34.0 °F 65% 30.12 in 10.0 mi North 3.5 mph - N/A   Overcast
3:51 PM 45.0 °F - 32.0 °F 60% 30.11 in 10.0 mi Calm Calm - N/A   Overcast
4:51 PM 45.0 °F 42.6 °F 32.0 °F 60% 30.10 in 10.0 mi NNW 4.6 mph - N/A   Overcast
5:51 PM 45.0 °F 42.6 °F 34.0 °F 65% 30.10 in 10.0 mi WNW 4.6 mph - N/A   Overcast
6:51 PM 44.1 °F 42.5 °F 34.0 °F 68% 30.11 in 10.0 mi WSW 3.5 mph - N/A   Overcast
7:51 PM 43.0 °F - 37.0 °F 80% 30.11 in 10.0 mi Calm Calm - N/A   Overcast
8:51 PM 43.0 °F - 36.0 °F 76% 30.11 in 10.0 mi Calm Calm - N/A   Overcast
9:51 PM 41.0 °F - 35.1 °F 79% 30.10 in 10.0 mi Calm Calm - N/A   Overcast
10:51 PM 36.0 °F - 34.0 °F 93% 30.10 in 10.0 mi Calm Calm - N/A   Scattered Clouds
11:51 PM 33.1 °F 30.0 °F 32.0 °F 96% 30.10 in 10.0 mi SE 3.5 mph - N/A   Partly Cloudy